SCP
0 0 0 0 0 -0 -0 -0 -0 -0 0 0 -0 -0 0 -0 -0 -0 -0 0 -0 -0 0 0 -0 -0 -0 -0 -0 -0 -0 -0 -0 -0 -0 -0 -0 -0 -0 -0 -0 -0 -0 -0 -0 -0 0 -0 -0
0 0 0 0 0 0 -0 0 0 -0 0 -0 0 0 0 -0 -0 -0 0 0 -0 -0 -0 0 0 -0 -0 -0 -0 -0 -0 -0 -0 -0 -0 -0 -0 -0 -0 -0 0 -0 -0 -0 -0 0 0 -0 0
0 -0 0 0 0 0 0 0 -0 0 -0 -0 -0 0 0 -0 -0 0 -0 0 0 -0 -0 -0 -0 -0 -0 -0 -0 -0 -0 -0 -0 -0 -0 -0 -0 -0 0 0 0 -0 -0 -0 0 0 -0 -0 0
0 0 0 0 0 0 0 0 -0 0 -0 -0 -0 0 0 0 0 0 -0 -0 0 -0 -0 -0 0 0 -0 -0 -0 -0 0 0 -0 -0 -0 -0 -0 -0 0 -0 0 -0 -0 -0 0 -0 -0 -0 -0
0 0 0 0 0 0 0 0 0 -0 0 -0 -0 -0 0 0 -0 -0 -0 -0 0 -0 -0 0 0 -0 0 -0 -0 -0 0 0 -0 -0 -0 -0 -0 0 0 -0 -0 -0 -0 -0 -0 -0 -0 -0 -0
0 0 0 0 0 0 0 0 0 0 0 0 -0 -0 0 -0 -0 -0 -0 -0 0 0 -0 0 0 0 -0 -0 -0 0 0 0 0 -0 -0 0 0 0 -0 0 -0 -0 -0 -0 -0 -0 -0 -0 0
0 0 0 0 0 0 0 0 0 0 0 0 0 -0 0 0 -0 -0 -0 -0 -0 0 0 0 0 0 0 -0 -0 -0 -0 -0 -0 -0 0 0 -0 -0 -0 -0 -0 0 -0 -0 -0 -0 -0 -0 0
0 0 0 0 0 0 0 0 0 0 0 0 0 0 0 0 0 -0 -0 -0 -0 -0 0 0 0 0 0 0 0 -0 -0 -0 -0 -0 0 0 0 0 0 0 0 0 -0 -0 -0 -0 -0 -0 0
0 0 0 0 0 0 0 0 0 0 0 0 0 0 0 0 0 0 0 -0 -0 -0 0 0 0 0 0 0 0 0 -0 0 0 0 0 0 0 0 0 0 -0 -0 -0 -0 -0 -0 -0 0 0
0 0 0 0 0 0 0 0 0 0 0 0 0 0 0 0 0 0 0 0 0 0 0 0 0 0 0 0 0 0 0 0 0 0 0 -0 0 0 0 -0 -0 -0 -0 -0 -0 0 0 -0 0
0 0 0 0 0 0 0 0 0 0 0 0 0 0 0 0 0 0 0 0 0 0 0 0 0 0 0 0 0 0 0 0 0 0 0 -0 0 0 0 0 0 0 0 0 0 0 0 0 0
0 0 0 0 0 0 0 0 0 0 0 0 0 0 0 0 0 0 0 0 0 0 0 0 0 0 0 0 0 0 0 0 0 0 0 0 0 0 0 0 0 0 0 0 0 0 0 0 0
0 0 0 0 0 0 0 0 0 0 0 0 0 0 0 0 0 0 0 0 0 0 0 0 0 0 0 0 0 0 0 0 0 0 0 0 0 0 0 0 0 0 0 0 0 0 0 0 0
0 0 0 0 0 0 0 0 0 0 0 0 0 0 0 0 0 0 0 0 0 0 0 0 0 0 0 0 0 0 0 0 0 0 0 0 0 0 0 0 0 0 0 0 0 0 0 0 0
0 0 0 0 0 0 0 0 0 0 0 0 0 0 0 0 0 0 0 0 0 0 0 0 0 0 0 0 0 0 0 0 0 0 0 0 0 0 0 0 0 0 0 0 0 0 0 0 0
0 0 0 0 0 0 0 0 0 0 0 0 0 0 0 0 0 0 0 0 0 0 0 0 0 0 0 0 0 0 0 0 0 0 0 0 0 0 0 0 0 0 0 0 0 0 0 0 0
0 0 0 0 0 0 0 0 0 0 0 0 0 0 0 0 0 0 0 0 0 0 0 0 0 0 0 0 0 0 0 0 0 0 0 0 0 0 0 0 0 0 0 0 0 0 0 0 0
0 0 0 0 0 0 0 0 0 0 0 0 0 0 0 0 0 0 0 0 0 0 0 0 0 0 0 0 0 0 0 0 0 0 0 0 0 0 0 0 0 0 0 0 0 0 0 0 0
0 0 0 0 0 0 0 0 0 0 0 0 0 0 0 0 0 0 0 0 0 0 0 0 0 0 0 0 0 0 0 0 0 0 0 0 0 0 0 0 0 0 0 0 0 0 0 0 0
0 0 0 0 0 0 0 0 0 0 0 0 0 0 0 0 0 0 0 0 0 0 0 0 0 0 0 0 0 0 0 0 0 0 0 0 0 0 0 0 0 0 0 0 0 0 0 0 0
0 0 0 0 0 0 0 0 0 0 0 0 0 0 0 0 0 0 0 0 0 0 0 0 0 0 0 0 0 0 0 0 0 0 0 0 0 0 0 0 0 0 0 0 0 0 0 0 0
0 0 0 0 0 0 0 -0 0 0 0 0 0 0 0 0 0 0 0 0 0 0 0 0 0 0 0 0 0 0 0 0 0 0 0 0 0 0 0 0 0 0 0 0 0 0 0 0 0
0 0 0 0 0 0 0 0 -0 -0 0 0 0 0 0 0 0 0 0 0 0 0 0 0 0 0 0 0 0 0 0 0 0 0 0 0 0 0 0 0 0 0 0 0 0 0 0 0 0
0 0 0 0 0 0 0 0 -0 0 0 0 0 0 0 0 0 0 0 0 0 0 0 0 0 0 0 0 0 0 0 0 0 0 0 0 0 0 0 0 0 0 0 0 0 0 0 0 0
0 0 0 0 0 0 0 0 0 0 0 0 0 0 0 0 0 0 0 0 0 0 0 0 0 0 0 0 0 0 0 0 0 0 0 0 0 0 0 0 0 0 0 0 0 0 0 0 0
0 0 0 0 0 0 0 0 0 0 0 0 -0 0 -0 0 0 0 0 0 0 0 0 0 0 0 0 0 0 0 0 0 0 0 0 0 0 0 0 0 0 0 0 0 0 0 0 0 0
0 0 0 0 0 0 0 0 0 0 0 0 0 0 0 0 0 0 0 0 0 0 0 0 0 0 0 0 0 0 0 0 0 0 0 0 0 0 0 0 0 0 0 0 0 0 0 0 0
0 0 0 0 0 0 0 0 0 0 0 0 0 0 0 0 0 0 0 0 0 0 0 0 0 0 0 0 0 0 0 0 0 0 0 0 0 0 0 0 0 0 0 0 0 0 0 0 0
0 0 0 0 0 0 0 0 0 0 0 0 0 0 0 0 0 0 0 0 0 0 0 -0 0 0 0 0 0 0 0 0 0 0 0 0 0 0 0 0 0 0 0 0 0 0 0 0 0
0 0 0 0 0 0 0 0 0 0 0 0 0 0 0 -0 -0 0 -0 -0 -0 0 0 0 0 0 0 0 0 0 0 0 0 0 0 0 0 0 0 0 0 0 0 0 0 0 0 0 0
Wind_Speed_500mb
32 35 28 19 5 2 12 8 6 6 9 13 12 13 8 29 10 7 29 25 29 23 29 29 26 20 18 16 10 8 6 6 5 9 18 22 29 24 28 21 15 24 28 30 30 31 33 34 35
35 36 19 11 5 4 9 11 13 15 18 11 5 10 4 11 16 31 34 26 31 21 28 25 25 20 15 11 8 7 4 5 7 11 19 25 28 20 31 19 14 24 27 28 29 30 31 32 35
37 17 13 6 6 10 6 12 19 17 9 3 3 6 11 11 13 32 18 34 29 18 23 25 22 19 14 9 9 5 7 7 8 17 20 26 25 17 29 17 14 19 24 26 27 28 28 31 32
25 12 14 3 8 15 14 12 31 17 5 5 7 14 14 17 19 17 37 35 32 27 19 21 21 18 15 12 10 2 6 5 5 14 22 25 21 16 22 18 17 20 22 23 24 24 26 29 29
20 9 7 5 6 13 13 10 13 12 14 11 2 9 13 17 20 18 41 36 33 26 20 23 21 18 16 16 11 2 6 5 3 11 18 25 22 18 17 19 16 19 19 21 21 21 25 25 25
15 2 7 7 3 14 17 9 3 6 20 10 3 6 11 8 18 28 39 35 30 27 20 23 21 21 21 19 11 4 4 5 0 9 11 12 15 19 13 10 15 19 17 17 18 18 20 21 21
19 7 12 15 16 8 15 10 2 7 19 13 6 2 13 9 21 30 36 33 26 29 19 18 22 24 24 22 15 10 7 9 5 10 14 12 11 12 11 14 15 16 15 15 15 15 15 16 17
14 8 10 11 8 14 9 6 5 11 9 17 10 1 10 21 27 31 36 34 30 28 23 16 21 25 26 24 21 18 16 14 12 13 14 13 12 10 8 9 13 15 15 14 13 12 11 11 12
10 7 10 16 15 14 14 2 10 5 4 7 7 2 12 23 23 35 39 38 33 30 25 21 21 22 25 26 27 26 20 22 18 17 14 13 12 12 11 11 12 12 12 12 11 9 8 7 6
6 7 15 16 23 22 17 12 12 5 16 20 20 20 17 24 23 37 48 48 42 36 31 30 31 23 23 21 30 29 26 30 25 21 16 10 9 15 15 11 12 15 14 12 10 8 6 4 4
8 8 26 30 21 30 16 12 13 13 16 23 6 34 26 27 28 35 45 50 47 38 34 35 33 30 34 32 23 30 29 33 30 24 22 18 22 20 16 15 15 15 15 14 11 9 6 6 1
21 27 26 44 18 8 11 20 34 21 36 28 7 9 30 30 34 39 48 52 49 44 40 40 37 35 35 38 32 28 25 32 34 29 24 27 29 22 23 18 18 18 17 16 14 13 12 8 11
27 23 41 27 15 13 18 27 30 38 35 24 21 21 30 35 34 41 39 40 55 61 45 45 42 40 38 37 32 32 31 31 32 33 32 31 30 26 23 22 20 18 18 19 16 16 15 14 15
21 33 41 50 28 26 21 30 29 25 26 45 45 37 31 41 39 38 47 49 51 51 56 47 47 45 42 40 37 37 36 35 35 35 36 35 33 31 29 27 26 23 22 20 21 19 19 18 18
42 22 23 33 36 19 17 25 24 54 50 53 38 31 37 42 40 43 47 53 56 65 59 65 53 50 48 45 43 40 40 40 37 39 39 39 39 36 32 30 28 27 26 25 26 26 26 24 24
14 19 26 20 36 37 17 31 22 41 55 60 62 55 45 45 50 48 46 53 59 54 61 59 60 57 54 51 47 46 47 44 46 42 45 44 41 42 39 35 31 30 30 30 31 29 29 29 27
27 27 33 28 42 19 28 15 21 43 53 52 58 60 51 48 50 51 51 49 54 51 56 60 59 63 59 56 51 49 49 50 49 49 47 46 44 45 45 39 37 34 34 35 32 32 32 32 31
19 33 30 28 21 33 24 25 27 53 55 40 48 47 49 55 59 55 54 53 51 51 53 53 62 68 62 58 56 53 54 54 54 53 53 49 47 47 48 46 43 41 40 39 38 36 36 36 34
21 23 26 30 28 30 32 28 24 43 49 52 49 43 56 52 57 51 52 54 52 53 51 60 65 71 66 66 66 66 66 62 61 60 59 53 51 52 51 53 51 49 48 43 41 40 41 42 40
31 30 34 16 20 19 21 24 19 38 39 54 50 56 55 51 53 54 59 60 59 60 61 66 69 69 69 73 73 71 68 65 62 64 61 58 58 58 57 57 57 56 54 50 49 48 47 47 42
35 38 29 20 11 8 6 24 24 38 52 57 63 63 65 60 59 59 63 71 66 67 68 72 72 73 74 73 71 72 67 66 69 72 66 67 65 64 63 61 60 59 59 58 55 54 52 53 48
32 24 21 22 10 9 12 19 21 16 31 34 67 69 70 73 66 57 68 71 72 70 66 67 70 75 78 76 78 82 83 83 81 74 71 70 69 68 68 67 66 64 63 62 61 58 57 55 56
23 11 15 22 24 9 30 14 11 22 32 28 33 67 73 76 74 81 65 71 75 72 66 62 69 78 80 83 82 84 85 86 82 77 77 74 75 75 73 71 72 71 68 65 64 63 63 61 61
9 7 5 4 11 19 48 26 7 20 25 25 29 43 49 72 74 72 73 67 71 80 73 72 76 78 80 87 89 91 90 90 85 84 83 81 79 77 74 74 77 76 76 72 70 68 68 65 65
16 19 9 10 13 14 10 16 39 18 17 20 17 32 32 23 42 65 69 73 75 80 81 84 83 82 81 87 91 95 95 94 89 89 89 87 86 85 82 75 76 77 77 72 71 72 71 67 64
28 31 9 10 9 9 21 14 23 30 60 68 64 66 62 57 47 41 35 41 62 63 74 83 89 89 88 89 96 96 96 99 96 93 91 91 91 90 83 79 75 74 74 70 73 74 70 65 64
19 26 24 10 4 1 8 12 16 18 18 17 32 41 38 32 32 46 61 48 32 38 60 71 80 88 90 93 96 101 103 103 103 100 94 93 91 91 86 81 76 72 68 70 74 74 70 67 65
14 16 12 9 16 19 11 13 15 1 9 13 18 34 41 32 32 29 35 38 44 52 59 61 70 79 88 90 94 100 105 107 108 105 103 101 97 95 92 87 81 75 72 73 74 73 72 69 67
17 14 4 3 7 7 3 9 14 9 4 11 16 38 43 42 40 41 35 40 48 50 44 42 58 68 74 81 86 96 103 107 107 109 107 104 99 97 96 93 89 83 78 76 76 76 74 71 66
23 28 26 7 9 6 6 14 15 12 12 14 23 45 58 51 61 58 54 53 55 47 48 62 63 61 69 83 90 93 97 102 107 111 110 108 105 99 97 94 93 88 84 79 78 77 76 71 65
Wind_Direction_500mb
351 356 345 330 314 127 75 74 338 106 97 51 39 26 20 39 14 90 131 161 146 158 147 140 135 142 141 138 136 112 110 92 53 89 109 113 106 99 96 96 78 92 98 98 97 96 95 95 90
356 356 337 287 283 20 74 134 103 54 83 71 70 319 34 91 53 131 146 160 148 164 156 149 148 153 158 153 145 115 68 63 70 98 114 121 110 117 109 108 90 98 102 101 101 99 99 95 89
358 340 308 343 274 42 75 55 100 88 85 11 104 54 19 76 99 141 169 151 148 146 166 156 156 159 168 178 156 100 41 31 82 108 113 120 118 121 113 117 109 104 105 103 106 103 99 97 93
324 2 264 241 330 75 33 70 112 124 69 23 21 93 95 101 131 185 151 151 147 155 185 167 165 172 170 179 175 119 14 349 110 126 125 121 128 122 119 120 113 105 105 109 107 109 106 100 94
322 285 263 273 305 102 102 53 136 162 127 131 280 98 102 135 158 175 153 153 162 169 194 176 174 175 171 175 178 150 12 11 109 137 138 142 136 130 128 125 114 115 113 117 119 110 106 102 96
297 204 274 262 221 120 98 73 151 171 126 118 163 311 102 168 166 160 160 160 175 179 198 181 179 179 177 178 184 167 68 98 107 156 138 126 147 137 137 130 114 125 126 125 117 110 106 105 98
271 270 270 297 310 354 100 90 268 174 150 177 128 210 136 180 169 168 164 167 167 193 203 180 185 188 186 190 195 205 186 186 211 166 166 160 153 153 152 148 134 132 128 125 124 124 119 106 96
295 271 249 271 261 279 98 111 50 329 66 130 147 116 128 180 181 171 166 169 180 209 187 207 193 194 198 200 204 210 215 189 213 198 168 165 168 159 149 140 141 143 146 148 143 134 128 113 100
291 276 242 232 223 258 130 189 139 232 248 175 205 136 138 189 186 171 172 180 187 215 190 192 216 199 203 205 203 204 206 193 202 201 188 196 181 175 176 171 159 161 168 163 159 152 140 117 97
254 252 258 259 264 272 279 145 266 177 232 201 193 216 202 205 189 183 184 188 195 207 198 198 213 195 199 215 203 207 202 205 199 201 161 183 212 194 199 194 187 185 183 181 180 180 167 156 151
205 238 285 288 281 263 275 274 248 253 246 254 237 210 209 204 195 193 196 196 201 210 210 206 213 202 198 208 216 211 212 212 212 222 210 190 226 224 214 205 208 203 198 198 201 206 210 230 317
252 263 266 278 304 345 324 289 272 248 252 273 275 201 214 214 208 204 202 199 202 206 219 216 215 211 211 206 221 212 211 210 213 220 215 210 217 219 222 212 216 213 211 220 217 225 241 261 251
253 244 275 266 266 250 280 280 284 272 269 252 265 240 210 229 219 214 221 218 208 209 205 222 219 215 215 214 216 202 225 215 215 220 224 222 220 226 223 229 229 226 225 229 234 242 252 256 265
246 247 250 270 240 242 238 265 267 258 271 258 261 238 222 232 240 212 211 218 211 221 200 214 224 218 218 216 216 209 220 226 225 225 229 227 226 226 229 228 231 232 234 235 241 247 257 263 272
259 255 277 257 261 240 263 267 243 258 257 269 246 232 226 215 229 237 215 220 221 222 215 210 219 221 220 222 217 215 222 224 232 229 234 233 226 226 229 230 234 235 237 240 243 244 252 265 274
262 243 249 234 250 243 198 256 284 281 240 241 250 251 231 219 218 230 231 217 231 229 216 220 215 223 222 223 223 221 224 226 229 231 233 236 230 228 231 233 236 237 238 243 245 251 258 265 269
225 240 235 246 249 229 203 250 258 275 253 240 245 241 232 221 216 222 227 233 231 229 219 219 218 224 225 223 228 228 229 233 234 234 236 237 236 233 234 236 237 237 239 245 247 249 256 262 267
208 229 247 266 240 236 239 232 252 267 284 286 249 247 245 224 221 219 217 232 234 229 222 217 218 229 227 224 226 229 233 234 237 237 239 240 238 237 236 238 238 238 242 244 247 252 257 261 265
246 251 236 233 236 263 227 241 258 266 255 266 266 262 260 237 225 220 223 225 226 229 220 213 223 229 226 223 225 227 232 234 237 240 243 245 244 241 238 240 240 241 244 248 250 254 256 260 267
246 255 259 275 282 240 244 254 267 269 260 258 256 251 249 254 230 219 218 221 223 224 222 219 222 228 233 229 231 234 237 241 245 245 247 248 244 244 242 241 242 243 246 248 251 254 257 263 263
231 236 249 261 310 304 314 277 265 266 263 262 257 253 255 245 243 226 219 220 223 222 223 221 223 230 234 234 233 234 235 238 240 241 242 241 242 243 244 245 244 244 247 250 254 255 258 262 264
235 230 251 261 303 259 163 273 258 258 257 242 246 244 245 249 243 244 225 222 228 229 225 226 230 230 233 235 233 233 235 237 242 245 246 245 244 244 244 245 246 245 246 250 254 257 259 260 261
240 215 247 250 254 283 267 279 277 211 257 269 263 238 238 240 242 241 239 229 234 236 231 229 232 231 232 233 238 239 239 243 245 246 247 245 248 247 247 246 247 248 248 250 253 255 256 260 262
142 222 131 322 259 233 240 217 239 231 250 256 272 258 250 238 238 239 242 239 240 242 237 233 233 235 234 234 239 241 243 243 244 245 245 248 248 250 250 248 248 249 251 252 255 257 256 257 259
209 173 231 210 224 234 206 210 243 263 268 281 291 288 301 304 252 238 238 240 245 242 242 242 238 239 237 237 238 241 244 245 248 248 246 246 248 250 252 249 248 248 250 251 253 253 254 256 257
199 196 203 215 213 263 158 219 244 223 237 253 262 271 280 286 294 292 280 280 249 246 246 248 250 248 242 239 240 242 244 245 247 247 248 248 251 255 257 256 253 251 251 249 248 250 251 253 254
182 216 221 273 133 217 221 239 297 270 265 256 254 258 284 291 287 286 283 280 263 261 265 256 256 257 254 250 247 244 244 244 246 247 246 248 250 252 255 256 255 250 248 245 244 246 247 249 254
217 140 188 193 224 233 236 240 246 64 249 293 269 260 288 301 308 310 302 306 298 279 272 264 262 262 262 257 253 251 248 248 248 246 246 247 248 248 250 252 252 250 246 242 240 242 244 249 252
195 200 173 184 220 235 233 232 221 230 24 20 24 5 355 359 356 351 340 323 320 308 285 286 274 270 269 262 257 253 252 251 250 249 248 247 247 247 247 249 249 248 245 241 238 240 243 248 251
212 222 206 207 207 233 315 260 294 330 79 46 347 336 327 330 331 330 332 326 322 320 300 301 296 284 277 271 264 256 252 253 251 249 249 248 246 245 245 247 246 247 246 243 239 240 242 245 248
Wind_Speed_850mb
32 35 28 19 5 2 12 8 6 6 9 13 12 13 8 29 10 7 29 25 29 23 29 29 26 20 18 16 10 8 6 6 5 9 18 22 29 24 28 21 15 24 28 30 30 31 33 34 35
35 36 19 11 5 4 9 11 13 15 18 11 5 10 4 11 16 31 34 26 31 21 28 25 25 20 15 11 8 7 4 5 7 11 19 25 28 20 31 19 14 24 27 28 29 30 31 32 35
37 17 13 6 6 10 6 12 19 17 9 3 3 6 11 11 13 32 18 34 29 18 23 25 22 19 14 9 9 5 7 7 8 17 20 26 25 17 29 17 14 19 24 26 27 28 28 31 32
25 12 14 3 8 15 14 12 31 17 5 5 7 14 14 17 19 17 37 35 32 27 19 21 21 18 15 12 10 2 6 5 5 14 22 25 21 16 22 18 17 20 22 23 24 24 26 29 29
20 9 7 5 6 13 13 10 13 12 14 11 2 9 13 17 20 18 41 36 33 26 20 23 21 18 16 16 11 2 6 5 3 11 18 25 22 18 17 19 16 19 19 21 21 21 25 25 25
15 2 7 7 3 14 17 9 3 6 20 10 3 6 11 8 18 28 39 35 30 27 20 23 21 21 21 19 11 4 4 5 0 9 11 12 15 19 13 10 15 19 17 17 18 18 20 21 21
19 7 12 15 16 8 15 10 2 7 19 13 6 2 13 9 21 30 36 33 26 29 19 18 22 24 24 22 15 10 7 9 5 10 14 12 11 12 11 14 15 16 15 15 15 15 15 16 17
14 8 10 11 8 14 9 6 5 11 9 17 10 1 10 21 27 31 36 34 30 28 23 16 21 25 26 24 21 18 16 14 12 13 14 13 12 10 8 9 13 15 15 14 13 12 11 11 12
10 7 10 16 15 14 14 2 10 5 4 7 7 2 12 23 23 35 39 38 33 30 25 21 21 22 25 26 27 26 20 22 18 17 14 13 12 12 11 11 12 12 12 12 11 9 8 7 6
6 7 15 16 23 22 17 12 12 5 16 20 20 20 17 24 23 37 48 48 42 36 31 30 31 23 23 21 30 29 26 30 25 21 16 10 9 15 15 11 12 15 14 12 10 8 6 4 4
8 8 26 30 21 30 16 12 13 13 16 23 6 34 26 27 28 35 45 50 47 38 34 35 33 30 34 32 23 30 29 33 30 24 22 18 22 20 16 15 15 15 15 14 11 9 6 6 1
21 27 26 44 18 8 11 20 34 21 36 28 7 9 30 30 34 39 48 52 49 44 40 40 37 35 35 38 32 28 25 32 34 29 24 27 29 22 23 18 18 18 17 16 14 13 12 8 11
27 23 41 27 15 13 18 27 30 38 35 24 21 21 30 35 34 41 39 40 55 61 45 45 42 40 38 37 32 32 31 31 32 33 32 31 30 26 23 22 20 18 18 19 16 16 15 14 15
21 33 41 50 28 26 21 30 29 25 26 45 45 37 31 41 39 38 47 49 51 51 56 47 47 45 42 40 37 37 36 35 35 35 36 35 33 31 29 27 26 23 22 20 21 19 19 18 18
42 22 23 33 36 19 17 25 24 54 50 53 38 31 37 42 40 43 47 53 56 65 59 65 53 50 48 45 43 40 40 40 37 39 39 39 39 36 32 30 28 27 26 25 26 26 26 24 24
14 19 26 20 36 37 17 31 22 41 55 60 62 55 45 45 50 48 46 53 59 54 61 59 60 57 54 51 47 46 47 44 46 42 45 44 41 42 39 35 31 30 30 30 31 29 29 29 27
27 27 33 28 42 19 28 15 21 43 53 52 58 60 51 48 50 51 51 49 54 51 56 60 59 63 59 56 51 49 49 50 49 49 47 46 44 45 45 39 37 34 34 35 32 32 32 32 31
19 33 30 28 21 33 24 25 27 53 55 40 48 47 49 55 59 55 54 53 51 51 53 53 62 68 62 58 56 53 54 54 54 53 53 49 47 47 48 46 43 41 40 39 38 36 36 36 34
21 23 26 30 28 30 32 28 24 43 49 52 49 43 56 52 57 51 52 54 52 53 51 60 65 71 66 66 66 66 66 62 61 60 59 53 51 52 51 53 51 49 48 43 41 40 41 42 40
31 30 34 16 20 19 21 24 19 38 39 54 50 56 55 51 53 54 59 60 59 60 61 66 69 69 69 73 73 71 68 65 62 64 61 58 58 58 57 57 57 56 54 50 49 48 47 47 42
35 38 29 20 11 8 6 24 24 38 52 57 63 63 65 60 59 59 63 71 66 67 68 72 72 73 74 73 71 72 67 66 69 72 66 67 65 64 63 61 60 59 59 58 55 54 52 53 48
32 24 21 22 10 9 12 19 21 16 31 34 67 69 70 73 66 57 68 71 72 70 66 67 70 75 78 76 78 82 83 83 81 74 71 70 69 68 68 67 66 64 63 62 61 58 57 55 56
23 11 15 22 24 9 30 14 11 22 32 28 33 67 73 76 74 81 65 71 75 72 66 62 69 78 80 83 82 84 85 86 82 77 77 74 75 75 73 71 72 71 68 65 64 63 63 61 61
9 7 5 4 11 19 48 26 7 20 25 25 29 43 49 72 74 72 73 67 71 80 73 72 76 78 80 87 89 91 90 90 85 84 83 81 79 77 74 74 77 76 76 72 70 68 68 65 65
16 19 9 10 13 14 10 16 39 18 17 20 17 32 32 23 42 65 69 73 75 80 81 84 83 82 81 87 91 95 95 94 89 89 89 87 86 85 82 75 76 77 77 72 71 72 71 67 64
28 31 9 10 9 9 21 14 23 30 60 68 64 66 62 57 47 41 35 41 62 63 74 83 89 89 88 89 96 96 96 99 96 93 91 91 91 90 83 79 75 74 74 70 73 74 70 65 64
19 26 24 10 4 1 8 12 16 18 18 17 32 41 38 32 32 46 61 48 32 38 60 71 80 88 90 93 96 101 103 103 103 100 94 93 91 91 86 81 76 72 68 70 74 74 70 67 65
14 16 12 9 16 19 11 13 15 1 9 13 18 34 41 32 32 29 35 38 44 52 59 61 70 79 88 90 94 100 105 107 108 105 103 101 97 95 92 87 81 75 72 73 74 73 72 69 67
17 14 4 3 7 7 3 9 14 9 4 11 16 38 43 42 40 41 35 40 48 50 44 42 58 68 74 81 86 96 103 107 107 109 107 104 99 97 96 93 89 83 78 76 76 76 74 71 66
23 28 26 7 9 6 6 14 15 12 12 14 23 45 58 51 61 58 54 53 55 47 48 62 63 61 69 83 90 93 97 102 107 111 110 108 105 99 97 94 93 88 84 79 78 77 76 71 65
Wind_Direction_850mb
351 356 345 330 314 127 75 74 338 106 97 51 39 26 20 39 14 90 131 161 146 158 147 140 135 142 141 138 136 112 110 92 53 89 109 113 106 99 96 96 78 92 98 98 97 96 95 95 90
356 356 337 287 283 20 74 134 103 54 83 71 70 319 34 91 53 131 146 160 148 164 156 149 148 153 158 153 145 115 68 63 70 98 114 121 110 117 109 108 90 98 102 101 101 99 99 95 89
358 340 308 343 274 42 75 55 100 88 85 11 104 54 19 76 99 141 169 151 148 146 166 156 156 159 168 178 156 100 41 31 82 108 113 120 118 121 113 117 109 104 105 103 106 103 99 97 93
324 2 264 241 330 75 33 70 112 124 69 23 21 93 95 101 131 185 151 151 147 155 185 167 165 172 170 179 175 119 14 349 110 126 125 121 128 122 119 120 113 105 105 109 107 109 106 100 94
322 285 263 273 305 102 102 53 136 162 127 131 280 98 102 135 158 175 153 153 162 169 194 176 174 175 171 175 178 150 12 11 109 137 138 142 136 130 128 125 114 115 113 117 119 110 106 102 96
297 204 274 262 221 120 98 73 151 171 126 118 163 311 102 168 166 160 160 160 175 179 198 181 179 179 177 178 184 167 68 98 107 156 138 126 147 137 137 130 114 125 126 125 117 110 106 105 98
271 270 270 297 310 354 100 90 268 174 150 177 128 210 136 180 169 168 164 167 167 193 203 180 185 188 186 190 195 205 186 186 211 166 166 160 153 153 152 148 134 132 128 125 124 124 119 106 96
295 271 249 271 261 279 98 111 50 329 66 130 147 116 128 180 181 171 166 169 180 209 187 207 193 194 198 200 204 210 215 189 213 198 168 165 168 159 149 140 141 143 146 148 143 134 128 113 100
291 276 242 232 223 258 130 189 139 232 248 175 205 136 138 189 186 171 172 180 187 215 190 192 216 199 203 205 203 204 206 193 202 201 188 196 181 175 176 171 159 161 168 163 159 152 140 117 97
254 252 258 259 264 272 279 145 266 177 232 201 193 216 202 205 189 183 184 188 195 207 198 198 213 195 199 215 203 207 202 205 199 201 161 183 212 194 199 194 187 185 183 181 180 180 167 156 151
205 238 285 288 281 263 275 274 248 253 246 254 237 210 209 204 195 193 196 196 201 210 210 206 213 202 198 208 216 211 212 212 212 222 210 190 226 224 214 205 208 203 198 198 201 206 210 230 317
252 263 266 278 304 345 324 289 272 248 252 273 275 201 214 214 208 204 202 199 202 206 219 216 215 211 211 206 221 212 211 210 213 220 215 210 217 219 222 212 216 213 211 220 217 225 241 261 251
253 244 275 266 266 250 280 280 284 272 269 252 265 240 210 229 219 214 221 218 208 209 205 222 219 215 215 214 216 202 225 215 215 220 224 222 220 226 223 229 229 226 225 229 234 242 252 256 265
246 247 250 270 240 242 238 265 267 258 271 258 261 238 222 232 240 212 211 218 211 221 200 214 224 218 218 216 216 209 220 226 225 225 229 227 226 226 229 228 231 232 234 235 241 247 257 263 272
259 255 277 257 261 240 263 267 243 258 257 269 246 232 226 215 229 237 215 220 221 222 215 210 219 221 220 222 217 215 222 224 232 229 234 233 226 226 229 230 234 235 237 240 243 244 252 265 274
262 243 249 234 250 243 198 256 284 281 240 241 250 251 231 219 218 230 231 217 231 229 216 220 215 223 222 223 223 221 224 226 229 231 233 236 230 228 231 233 236 237 238 243 245 251 258 265 269
225 240 235 246 249 229 203 250 258 275 253 240 245 241 232 221 216 222 227 233 231 229 219 219 218 224 225 223 228 228 229 233 234 234 236 237 236 233 234 236 237 237 239 245 247 249 256 262 267
208 229 247 266 240 236 239 232 252 267 284 286 249 247 245 224 221 219 217 232 234 229 222 217 218 229 227 224 226 229 233 234 237 237 239 240 238 237 236 238 238 238 242 244 247 252 257 261 265
246 251 236 233 236 263 227 241 258 266 255 266 266 262 260 237 225 220 223 225 226 229 220 213 223 229 226 223 225 227 232 234 237 240 243 245 244 241 238 240 240 241 244 248 250 254 256 260 267
246 255 259 275 282 240 244 254 267 269 260 258 256 251 249 254 230 219 218 221 223 224 222 219 222 228 233 229 231 234 237 241 245 245 247 248 244 244 242 241 242 243 246 248 251 254 257 263 263
231 236 249 261 310 304 314 277 265 266 263 262 257 253 255 245 243 226 219 220 223 222 223 221 223 230 234 234 233 234 235 238 240 241 242 241 242 243 244 245 244 244 247 250 254 255 258 262 264
235 230 251 261 303 259 163 273 258 258 257 242 246 244 245 249 243 244 225 222 228 229 225 226 230 230 233 235 233 233 235 237 242 245 246 245 244 244 244 245 246 245 246 250 254 257 259 260 261
240 215 247 250 254 283 267 279 277 211 257 269 263 238 238 240 242 241 239 229 234 236 231 229 232 231 232 233 238 239 239 243 245 246 247 245 248 247 247 246 247 248 248 250 253 255 256 260 262
142 222 131 322 259 233 240 217 239 231 250 256 272 258 250 238 238 239 242 239 240 242 237 233 233 235 234 234 239 241 243 243 244 245 245 248 248 250 250 248 248 249 251 252 255 257 256 257 259
209 173 231 210 224 234 206 210 243 263 268 281 291 288 301 304 252 238 238 240 245 242 242 242 238 239 237 237 238 241 244 245 248 248 246 246 248 250 252 249 248 248 250 251 253 253 254 256 257
199 196 203 215 213 263 158 219 244 223 237 253 262 271 280 286 294 292 280 280 249 246 246 248 250 248 242 239 240 242 244 245 247 247 248 248 251 255 257 256 253 251 251 249 248 250 251 253 254
182 216 221 273 133 217 221 239 297 270 265 256 254 258 284 291 287 286 283 280 263 261 265 256 256 257 254 250 247 244 244 244 246 247 246 248 250 252 255 256 255 250 248 245 244 246 247 249 254
217 140 188 193 224 233 236 240 246 64 249 293 269 260 288 301 308 310 302 306 298 279 272 264 262 262 262 257 253 251 248 248 248 246 246 247 248 248 250 252 252 250 246 242 240 242 244 249 252
195 200 173 184 220 235 233 232 221 230 24 20 24 5 355 359 356 351 340 323 320 308 285 286 274 270 269 262 257 253 252 251 250 249 248 247 247 247 247 249 249 248 245 241 238 240 243 248 251
212 222 206 207 207 233 315 260 294 330 79 46 347 336 327 330 331 330 332 326 322 320 300 301 296 284 277 271 264 256 252 253 251 249 249 248 246 245 245 247 246 247 246 243 239 240 242 245 248